Simultaneous Nadir Overpasses (SNOs) Predictions

Prediction of SNOs between AQUA and METOP-B Satellite Orbit:

Table of predicted SNOs for the next 14.0 days since TLE Epoch: 3/19/2022
Index Date (AQUA) Time (AQUA) Lat,Lon (AQUA) SZA (AQUA ) Date (METOP-B) Time (METOP-B) Lat,Lon (METOP-B) SZA (METOP-B ) Distance(km) Time Diff (sec)
1 03/19/2022 21:22:02 73.89,-146.15 74.24 03/19/2022 21:21:14 73.90,-146.04 74.26 3.75 48
2 03/19/2022 22:11:28 -73.93, 21.40 105.73 03/19/2022 22:11:55 -73.95, 21.39 105.72 1.64 27
3 03/22/2022 16:56:07 73.90, -79.68 73.13 03/22/2022 16:55:35 73.89, -79.66 73.13 1.36 32
4 03/22/2022 17:45:33 -73.94, 87.88 106.85 03/22/2022 17:46:16 -73.93, 87.77 106.85 3.60 43
5 03/25/2022 11:40:35 -73.44,-179.82 108.47 03/25/2022 11:39:26 -73.39, 178.25 108.43 61.48 69
6 03/25/2022 12:30:12 73.94, -13.26 72.05 03/25/2022 12:29:55 73.92, -13.18 72.04 2.91 17
7 03/25/2022 13:19:38 -73.97, 154.31 107.93 03/25/2022 13:20:36 -73.97, 154.25 107.94 1.83 58
8 03/28/2022 07:14:46 -73.85,-114.22 109.14 03/28/2022 07:13:36 -73.87,-114.24 109.11 1.90 70
9 03/28/2022 08:04:15 73.94, 53.22 70.95 03/28/2022 08:04:14 73.95, 53.30 70.96 2.70 1
10 03/28/2022 08:53:42 -74.02,-139.31 108.99 03/28/2022 08:54:55 -73.99,-139.27 109.02 2.85 73
11 03/31/2022 02:48:50 -73.88, -47.77 110.22 03/31/2022 02:47:56 -73.89, -47.77 110.19 1.92 54
12 03/31/2022 03:38:19 73.97, 119.66 69.87 03/31/2022 03:38:34 73.98, 119.76 69.88 3.40 15



Historial Predications of SNOs between AQUA and METOP-B
